Location: Alfortville
(48.8058°N, 2.4204°E)
Time: 22:56:46
(UTC+00:00)

SR - Pass Details

Date: 22 April 2026
Orbit: 568 x 852 km, 66.7° (Epoch: 19 May)

Event Time Altitude Azimuth Distance (km) Brightness Sun altitude
Rises 22:27:18 0° 314° (NW) 3,329 ? -26.2°
Reaches altitude 10° 22:30:11 10° 300° (WNW) 2,429 ? -26.3°
Maximum altitude 22:34:24 22° 252° (WSW) 1,755 ? -26.6°
Enters shadow 22:35:04 22° 241° (WSW) 1,779 ? -26.6°
